MPEC 2000-G38 : 2000 GO82
The following Minor Planet Electronic Circular may be linked-to from your own Web pages, but must not otherwise be redistributed electronically.A form allowing access to any MPEC is at the bottom of this page.


M.P.E.C. 2000-G38 Issued 2000 Apr. 10, 16:29 UT The Minor Planet Electronic Circulars contain information on unusual minor planets and routine data on comets. They are published on behalf of Commission 20 of the International Astronomical Union by the Minor Planet Center, Smithsonian Astrophysical Observatory, Cambridge, MA 02138, U.S.A. Prepared using the Tamkin Foundation Computer Network BMARSDEN@CFA.HARVARD.EDU or GWILLIAMS@CFA.HARVARD.EDU URL http://cfa-www.harvard.edu/iau/mpc.html ISSN 1523-6714 2000 GO82 Observations: K00G82O* C2000 04 03.36671 14 06 55.86 +13 07 50.1 18.4 704 K00G82O C2000 04 03.38100 14 06 54.69 +13 08 20.6 19.2 704 K00G82O C2000 04 03.40951 14 06 52.21 +13 09 20.6 19.1 704 K00G82O C2000 04 03.42379 14 06 50.99 +13 09 50.8 19.0 704 K00G82O C2000 04 04.26779 14 05 40.69 +13 40 00.7 17.5 704 K00G82O C2000 04 04.28267 14 05 39.38 +13 40 33.6 17.5 704 K00G82O C2000 04 04.28775 14 05 38.81 +13 40 43.1 19.1 V 854 K00G82O C2000 04 04.29094 14 05 38.74 +13 40 50.4 19.2 V 854 K00G82O C2000 04 04.29338 14 05 38.56 +13 40 56.8 19.1 V 854 K00G82O C2000 04 04.29762 14 05 38.07 +13 41 06.4 17.7 704 K00G82O C2000 04 04.31250 14 05 36.78 +13 41 38.2 17.4 704 K00G82O C2000 04 04.32737 14 05 35.39 +13 42 09.9 17.4 704 K00G82O C2000 04 04.33925 14 05 34.38 +13 42 35.2 18.5 704 K00G82O C2000 04 04.35358 14 05 33.12 +13 43 07.8 18.3 704 K00G82O C2000 04 04.36789 14 05 31.80 +13 43 38.2 18.3 704 K00G82O C2000 04 05.04479 14 04 32.68 +14 08 08.6 557 K00G82O C2000 04 05.04734 14 04 32.40 +14 08 15.1 557 K00G82O C2000 04 05.04994 14 04 32.23 +14 08 19.9 557 K00G82O C2000 04 05.28410 14 04 11.67 +14 16 57.6 16.9 704 K00G82O C2000 04 05.30059 14 04 10.16 +14 17 33.8 17.1 704 K00G82O C2000 04 05.31798 14 04 08.52 +14 18 12.4 16.7 704 K00G82O C2000 04 05.33419 14 04 07.05 +14 18 48.0 17.3 704 K00G82O C2000 04 05.35119 14 04 05.41 +14 19 24.3 17.2 704 K00G82O C2000 04 06.27676 14 02 40.72 +14 53 37.8 18.1 704 K00G82O C2000 04 06.29202 14 02 39.31 +14 54 12.9 18.4 704 K00G82O C2000 04 06.32172 14 02 36.43 +14 55 19.8 18.0 704 K00G82O C2000 04 06.33663 14 02 34.87 +14 55 52.6 18.4 704 K00G82O C2000 04 07.33352 14 00 59.29 +15 33 21.6 18.2 704 K00G82O C2000 04 07.34764 14 00 57.84 +15 33 53.9 18.2 704 K00G82O C2000 04 07.36175 14 00 56.37 +15 34 26.0 18.5 704 K00G82O C2000 04 07.37584 14 00 55.01 +15 34 57.9 18.1 704 K00G82O C2000 04 07.38992 14 00 53.60 +15 35 29.3 19.1 704 K00G82O C2000 04 07.89722 14 00 03.69 +15 54 45.6 18.1 R 587 K00G82O IC2000 04 07.90208 14 00 03.20 +15 54 57.4 587 K00G82O C2000 04 08.33079 13 59 19.54 +16 11 25.8 18.1 704 K00G82O C2000 04 08.37678 13 59 14.61 +16 13 10.6 18.2 704 K00G82O C2000 04 08.39196 13 59 13.05 +16 13 45.9 18.2 704 K00G82O C2000 04 08.41001 13 59 11.06 +16 14 28.1 18.7 704 K00G82O C2000 04 08.42795 13 59 09.26 +16 15 08.8 18.4 704 K00G82O C2000 04 08.92352 13 58 18.44 +16 34 14.6 557 K00G82O C2000 04 08.92586 13 58 18.12 +16 34 20.1 557 K00G82O C2000 04 08.92818 13 58 17.92 +16 34 25.4 557 K00G82O C2000 04 08.93051 13 58 17.64 +16 34 30.7 557 K00G82O C2000 04 09.10539 13 57 58.81 +16 41 17.7 18.0 R 046 K00G82O C2000 04 09.10671 13 57 58.63 +16 41 21.3 046 K00G82O C2000 04 09.10772 13 57 58.54 +16 41 23.2 046 K00G82O C2000 04 09.10874 13 57 58.45 +16 41 25.4 046 K00G82O C2000 04 09.10981 13 57 58.32 +16 41 28.3 046 K00G82O C2000 04 09.11096 13 57 58.22 +16 41 30.2 18.1 R 046 Observer details: 046 Klet. Observers J. Ticha, M. Tichy, Z. Moravec. 0.57-m f/5.2 reflector + CCD. 557 Ondrejov. Observer P. Kusnirak, U. Babiakova. 0.65-m f/3.6 reflector + CCD. 587 Sormano. Observers A. Testa, M. Cavagna. 0.5-m reflector + CCD. 704 Lincoln Laboratory ETS, New Mexico. Observers M. Blythe, F. Shelly, M. Bezpalko, M. Elowitz, R. Huber. Measurers J. Stuart, H. Viggh, R. Sayer, J. B. Evans. 1.0-m f/2.15 reflector + CCD. 854 Sabino Canyon Observatory, Tucson. Observer J. E. McGaha. 0.30-m f/6.1 Schmidt-Cassegrain + CCD. Orbital elements: 2000 GO82 Epoch 2000 Apr. 6.0 TT = JDT 2451640.5 Williams M 327.04749 (2000.0) P Q n 0.30744846 Peri. 164.18210 +0.92858806 +0.36794103 a 2.1741417 Node 173.57480 -0.36974882 +0.92844246 e 0.8058302 Incl. 25.63286 -0.03178081 -0.05112722 P 3.21 H 17.0 G 0.15 From 49 observations 2000 Apr. 3-9. Ephemeris: 2000 GO82 a,e,i = 2.17, 0.81, 26 q = 0.4222 Date TT R. A. (2000) Decl. Delta r Elong. Phase V 2000 04 06 14 03.11 +14 43.4 0.862 1.814 153.8 14.1 18.8 2000 04 11 13 54.53 +17 55.9 0.808 1.758 152.3 15.4 18.6 2000 04 16 13 44.19 +21 19.6 0.763 1.701 148.5 18.0 18.5 2000 04 21 13 32.07 +24 49.1 0.725 1.643 142.8 21.7 18.4 2000 04 26 13 18.22 +28 17.8 0.696 1.582 136.0 26.2 18.4 2000 05 01 13 02.84 +31 38.4 0.674 1.521 128.4 31.3 18.4 2000 05 06 12 46.21 +34 44.1 0.658 1.458 120.5 36.6 18.4 2000 05 11 12 28.76 +37 30.2 0.648 1.393 112.5 42.1 18.4 2000 05 16 12 10.86 +39 54.4 0.641 1.326 104.6 47.5 18.4 2000 05 21 11 52.82 +41 57.0 0.636 1.258 96.9 53.0 18.5 2000 05 26 11 34.83 +43 39.9 0.632 1.188 89.3 58.5 18.5 2000 05 31 11 16.86 +45 06.0 0.628 1.116 82.0 64.1 18.5 2000 06 05 10 58.64 +46 18.6 0.623 1.042 74.8 70.0 18.5 2000 06 10 10 39.55 +47 20.3 0.616 0.966 67.6 76.3 18.5 2000 06 15 10 18.58 +48 11.6 0.606 0.889 60.3 83.3 18.6 Gareth V. Williams (C) Copyright 2000 MPC M.P.E.C. 2000-G38


Enter an MPEC number in one of the following forms:
- 1997-B01 (the full form)
- J97B01 (the packed version of the full form)
- B01 (the abbreviated form)